This demonstration page uses our WeatherBlox Daily Observations layout. Learn more.

Left ArrowRight Arrow

39.08367, -84.50855

Hourly Observations for April 24, 2017

Temp ( °F °C ) Dew Point ( °F °C ) Humidity (%) Winds ( mph kmh ) Pressure ( in mb ) Visibility ( mi km ) Precip ( " mm )
12:53 am 00:53 Clear 47 8.3 44 6.7 90 90 NNE 3 6 29.95 1014 10 16 N/A
1:53 am 01:53 Clear 46 7.8 44 6.7 93 93 N N/A 29.96 1015 10 16 N/A
2:53 am 02:53 Clear 43 6.1 42 5.6 97 97 S 5 7 29.95 1014 10 16 N/A
3:53 am 03:53 Mostly Cloudy 46 7.8 45 7.2 96 96 NE 3 6 29.93 1014 10 16 N/A
4:53 am 04:53 Clear 47 8.3 42 5.6 83 83 ENE 3 6 29.93 1014 10 16 N/A
5:53 am 05:53 Clear 44 6.7 42 5.6 93 93 E 5 7 29.92 1013 10 16 N/A
6:53 am 06:53 Sunny 46 7.8 41 5 83 83 ENE 3 6 29.94 1014 10 16 N/A
7:53 am 07:53 Sunny 48 8.9 43 6.1 83 83 E 3 6 29.94 1014 10 16 N/A
8:53 am 08:53 Sunny 54 12.2 43 6.1 67 67 ENE 6 9 29.95 1014 10 16 N/A
9:53 am 09:53 Sunny 59 15 44 6.7 58 58 ENE 7 11 29.94 1014 10 16 N/A
10:53 am 10:53 Sunny 64 17.8 46 7.8 52 52 NNE 9 15 29.93 1013 10 16 N/A
11:53 am 11:53 Sunny 66 18.9 46 7.8 49 49 NE 8 13 29.92 1013 10 16 N/A
12:53 pm 12:53 Sunny 70 21.1 52 11.1 53 53 NE 9 15 29.89 1012 10 16 N/A
1:53 pm 13:53 Sunny 71 21.7 53 11.7 53 53 E 12 19 29.87 1012 10 16 N/A
2:53 pm 14:53 Sunny 72 22.2 55 12.8 55 55 ENE 12 19 29.85 1011 10 16 N/A
3:53 pm 15:53 Cloudy 73 22.8 56 13.3 55 55 ENE 9 15 29.82 1010 10 16 N/A
4:53 pm 16:53 Mostly Sunny 71 21.7 55 12.8 57 57 ENE 10 17 29.81 1010 10 16 N/A
5:53 pm 17:53 Mostly Cloudy 69 20.6 55 12.8 61 61 ENE 13 20 29.81 1009 10 16 N/A
6:53 pm 18:53 Mostly Cloudy 68 20 55 12.8 63 63 E 13 20 29.81 1010 10 16 N/A
7:53 pm 19:53 Mostly Cloudy 66 18.9 53 11.7 63 63 E 6 9 29.82 1010 10 16 N/A
8:53 pm 20:53 Cloudy 65 18.3 54 12.2 68 68 E 8 13 29.81 1010 10 16 N/A
9:53 pm 21:53 Cloudy 64 17.8 55 12.8 73 73 ENE 6 9 29.81 1010 10 16 N/A
10:53 pm 22:53 Cloudy 62 16.7 55 12.8 78 78 E 8 13 29.83 1010 10 16 N/A
11:53 pm 23:53 Cloudy 60 15.6 55 12.8 84 84 ENE 8 13 29.82 1010 10 16 N/A

Powered by AerisWeather